| time (UTC) | temp C | wind direction | speed KPH | gust KPH | rain 1hr cm | rain 24hr cm | rain mn cm | humidity % | barometer mb |
| 20260506195537 | 14 | 295 | 0.0 | 0.0 | 0.00 | 0.51 | 0.33 | 80 | 1013.6 |
| 20260506195023 | 14 | 294 | 0.0 | 0.0 | 0.00 | 0.51 | 0.33 | 80 | 1013.6 |
| 20260506194532 | 14 | 295 | 0.0 | 0.0 | 0.00 | 0.51 | 0.33 | 80 | 1013.6 |
| 20260506194034 | 14 | 295 | 0.0 | 0.0 | 0.00 | 0.51 | 0.33 | 80 | 1013.5 |
| 20260506193524 | 14 | 294 | 0.0 | 0.0 | 0.00 | 0.51 | 0.33 | 80 | 1013.5 |
| 20260506193030 | 14 | 295 | 0.0 | 0.0 | 0.00 | 0.51 | 0.33 | 80 | 1013.5 |
| 20260506192539 | 14 | 295 | 0.0 | 0.0 | 0.00 | 0.51 | 0.33 | 80 | 1013.5 |
| 20260506192025 | 14 | 295 | 0.0 | 0.0 | 0.00 | 0.51 | 0.33 | 80 | 1013.5 |
| 20260506191537 | 14 | 295 | 0.0 | 0.0 | 0.00 | 0.51 | 0.33 | 80 | 1013.5 |
| 20260506191024 | 14 | 294 | 0.0 | 0.0 | 0.00 | 0.51 | 0.33 | 80 | 1013.5 |
| 20260506190547 | 14 | 294 | 0.0 | 0.0 | 0.00 | 0.51 | 0.33 | 80 | 1013.5 |
| 20260506190031 | 14 | 295 | 0.0 | 0.0 | 0.00 | 0.51 | 0.33 | 80 | 1013.5 |
| 20260506185026 | 14 | 295 | 0.0 | 0.0 | 0.00 | 0.61 | 0.33 | 80 | 1013.5 |
| 20260506184535 | 15 | 295 | 0.0 | 0.0 | 0.00 | 0.61 | 0.33 | 80 | 1013.5 |
| 20260506184039 | 15 | 295 | 0.0 | 0.0 | 0.00 | 0.61 | 0.33 | 80 | 1013.5 |
| 20260506183526 | 15 | 295 | 0.0 | 0.0 | 0.00 | 0.61 | 0.33 | 80 | 1013.5 |
| 20260506183031 | 15 | 295 | 0.0 | 1.6 | 0.00 | 0.61 | 0.33 | 80 | 1013.5 |
| 20260506182522 | 15 | 295 | 0.0 | 6.4 | 0.00 | 0.61 | 0.33 | 80 | 1013.6 |
| 20260506182028 | 15 | 294 | 1.6 | 6.4 | 0.00 | 0.61 | 0.33 | 80 | 1013.6 |
| 20260506181538 | 15 | 312 | 1.6 | 4.8 | 0.00 | 0.61 | 0.33 | 80 | 1013.6 |
| 20260506180602 | 15 | 312 | 1.6 | 4.8 | 0.00 | 0.61 | 0.33 | 80 | 1013.5 |
| 20260506180024 | 15 | 312 | 1.6 | 4.8 | 0.00 | 0.61 | 0.33 | 80 | 1013.5 |
| 20260506175534 | 15 | 326 | 3.2 | 6.4 | 0.00 | 0.61 | 0.33 | 80 | 1013.6 |
| 20260506175037 | 15 | 340 | 4.8 | 6.4 | 0.00 | 0.61 | 0.33 | 80 | 1013.6 |
| 20260506174526 | 15 | 340 | 4.8 | 6.4 | 0.00 | 0.61 | 0.33 | 80 | 1013.6 |
| 20260506174032 | 15 | 333 | 4.8 | 6.4 | 0.00 | 0.61 | 0.33 | 80 | 1013.6 |
| 20260506173539 | 15 | 359 | 3.2 | 6.4 | 0.00 | 0.61 | 0.33 | 80 | 1013.6 |
| 20260506173031 | 15 | 359 | 1.6 | 6.4 | 0.00 | 0.61 | 0.33 | 80 | 1013.6 |
| 20260506172539 | 15 | 321 | 3.2 | 8.0 | 0.00 | 0.61 | 0.33 | 80 | 1013.6 |
| 20260506172023 | 15 | 1 | 6.4 | 8.0 | 0.00 | 0.61 | 0.33 | 80 | 1013.6 |
| 20260506171533 | 15 | 360 | 6.4 | 8.0 | 0.00 | 0.61 | 0.33 | 80 | 1013.6 |
| 20260506171039 | 15 | 360 | 6.4 | 9.7 | 0.00 | 0.61 | 0.33 | 80 | 1013.6 |
| 20260506170600 | 15 | 359 | 6.4 | 9.7 | 0.00 | 0.61 | 0.33 | 80 | 1013.6 |
| 20260506170023 | 15 | 359 | 3.2 | 8.0 | 0.00 | 0.61 | 0.33 | 80 | 1013.6 |
| 20260506165530 | 15 | 322 | 3.2 | 11.3 | 0.00 | 0.61 | 0.33 | 80 | 1013.6 |
| 20260506164521 | 15 | 302 | 4.8 | 14.5 | 0.00 | 0.61 | 0.33 | 80 | 1013.6 |
| 20260506163535 | 15 | 309 | 6.4 | 12.9 | 0.00 | 0.61 | 0.33 | 80 | 1013.6 |
| 20260506163025 | 15 | 354 | 6.4 | 12.9 | 0.00 | 0.61 | 0.33 | 80 | 1013.6 |
| 20260506162535 | 15 | 360 | 6.4 | 14.5 | 0.00 | 0.61 | 0.33 | 80 | 1013.7 |
| 20260506162038 | 15 | 326 | 9.7 | 14.5 | 0.00 | 0.61 | 0.33 | 80 | 1013.7 |
| 20260506161525 | 15 | 356 | 8.0 | 12.9 | 0.00 | 0.61 | 0.33 | 80 | 1013.7 |
| 20260506161032 | 15 | 328 | 6.4 | 14.5 | 0.00 | 0.61 | 0.33 | 80 | 1013.8 |
| 20260506160554 | 15 | 325 | 8.0 | 14.5 | 0.00 | 0.61 | 0.33 | 80 | 1013.8 |
| 20260506160037 | 15 | 302 | 8.0 | 16.1 | 0.00 | 0.61 | 0.33 | 80 | 1013.8 |
| 20260506155525 | 15 | 323 | 8.0 | 16.1 | 0.00 | 0.61 | 0.33 | 80 | 1013.9 |
| 20260506155039 | 15 | 359 | 9.7 | 14.5 | 0.00 | 0.61 | 0.33 | 80 | 1013.9 |
| 20260506154525 | 15 | 350 | 8.0 | 16.1 | 0.00 | 0.61 | 0.33 | 80 | 1013.9 |
| 20260506154035 | 16 | 290 | 4.8 | 16.1 | 0.00 | 0.61 | 0.33 | 80 | 1014.0 |
| 20260506153523 | 15 | 297 | 8.0 | 12.9 | 0.00 | 0.61 | 0.33 | 80 | 1014.0 |
| 20260506153029 | 15 | 311 | 8.0 | 16.1 | 0.00 | 0.61 | 0.33 | 80 | 1014.0 |
| 20260506152538 | 15 | 297 | 8.0 | 16.1 | 0.00 | 0.61 | 0.33 | 80 | 1014.1 |
| 20260506152023 | 15 | 327 | 4.8 | 11.3 | 0.00 | 0.61 | 0.33 | 80 | 1014.1 |
| 20260506150602 | 15 | 340 | 11.3 | 17.7 | 0.00 | 0.61 | 0.33 | 80 | 1014.1 |
| 20260506150024 | 15 | 323 | 6.4 | 17.7 | 0.00 | 0.61 | 0.33 | 80 | 1014.1 |
| 20260506145035 | 16 | 339 | 8.0 | 17.7 | 0.00 | 0.74 | 0.33 | 80 | 1014.2 |
| 20260506144524 | 16 | 329 | 9.7 | 17.7 | 0.00 | 0.74 | 0.33 | 80 | 1014.2 |
| 20260506144035 | 15 | 301 | 6.4 | 16.1 | 0.00 | 0.74 | 0.33 | 80 | 1014.3 |
| 20260506142523 | 16 | 346 | 9.7 | 17.7 | 0.00 | 0.74 | 0.33 | 80 | 1014.4 |
| 20260506142031 | 16 | 359 | 4.8 | 14.5 | 0.00 | 0.74 | 0.33 | 80 | 1014.4 |
| 20260506141540 | 15 | 250 | 9.7 | 17.7 | 0.00 | 0.74 | 0.33 | 80 | 1014.4 |
| 20260506141040 | 15 | 295 | 6.4 | 19.3 | 0.00 | 0.74 | 0.33 | 80 | 1014.5 |
| 20260506135534 | 16 | 347 | 11.3 | 17.7 | 0.00 | 0.74 | 0.33 | 80 | 1014.6 |
| 20260506135039 | 16 | 290 | 4.8 | 16.1 | 0.00 | 0.74 | 0.33 | 80 | 1014.6 |
| 20260506134527 | 16 | 302 | 6.4 | 19.3 | 0.00 | 0.74 | 0.33 | 80 | 1014.6 |
| 20260506134030 | 16 | 307 | 14.5 | 19.3 | 0.00 | 0.74 | 0.33 | 80 | 1014.7 |
| 20260506133523 | 16 | 303 | 11.3 | 17.7 | 0.00 | 0.74 | 0.33 | 80 | 1014.7 |
| 20260506132539 | 16 | 333 | 9.7 | 19.3 | 0.00 | 0.74 | 0.33 | 80 | 1014.6 |
| 20260506132026 | 16 | 276 | 11.3 | 19.3 | 0.00 | 0.74 | 0.33 | 80 | 1014.6 |
| 20260506131039 | 16 | 295 | 14.5 | 22.5 | 0.00 | 0.74 | 0.33 | 80 | 1014.6 |
| 20260506130559 | 16 | 285 | 12.9 | 17.7 | 0.00 | 0.74 | 0.33 | 80 | 1014.6 |
| 20260506130040 | 16 | 339 | 12.9 | 17.7 | 0.00 | 0.74 | 0.33 | 80 | 1014.6 |
| 20260506125039 | 16 | 292 | 9.7 | 19.3 | 0.00 | 0.74 | 0.33 | 80 | 1014.7 |
| 20260506124527 | 16 | 312 | 8.0 | 22.5 | 0.00 | 0.74 | 0.33 | 80 | 1014.7 |
| 20260506124029 | 16 | 294 | 9.7 | 22.5 | 0.00 | 0.74 | 0.33 | 80 | 1014.7 |
| 20260506123522 | 16 | 304 | 11.3 | 20.9 | 0.00 | 0.74 | 0.33 | 80 | 1014.7 |
| 20260506122539 | 16 | 295 | 11.3 | 20.9 | 0.00 | 0.74 | 0.33 | 80 | 1014.7 |
| 20260506122024 | 16 | 278 | 9.7 | 19.3 | 0.00 | 0.74 | 0.33 | 80 | 1014.7 |
| 20260506121533 | 16 | 289 | 14.5 | 19.3 | 0.00 | 0.74 | 0.33 | 80 | 1014.7 |
| 20260506121021 | 16 | 290 | 11.3 | 20.9 | 0.00 | 0.74 | 0.33 | 80 | 1014.7 |
| 20260506120543 | 16 | 257 | 9.7 | 20.9 | 0.00 | 0.74 | 0.33 | 80 | 1014.7 |
| 20260506120025 | 16 | 248 | 8.0 | 20.9 | 0.00 | 0.74 | 0.33 | 80 | 1014.7 |
| 20260506115535 | 16 | 311 | 11.3 | 22.5 | 0.00 | 0.74 | 0.33 | 80 | 1014.7 |
| 20260506115038 | 15 | 224 | 9.7 | 22.5 | 0.00 | 0.74 | 0.33 | 80 | 1014.6 |
| 20260506114529 | 15 | 248 | 8.0 | 17.7 | 0.00 | 0.74 | 0.33 | 80 | 1014.6 |
| 20260506113524 | 15 | 269 | 8.0 | 22.5 | 0.00 | 0.74 | 0.33 | 80 | 1014.6 |
| 20260506113030 | 15 | 317 | 12.9 | 20.9 | 0.00 | 0.74 | 0.33 | 80 | 1014.6 |
| 20260506112025 | 15 | 272 | 11.3 | 20.9 | 0.00 | 0.74 | 0.33 | 80 | 1014.6 |
| 20260506111024 | 15 | 283 | 14.5 | 22.5 | 0.00 | 0.74 | 0.33 | 80 | 1014.6 |
| 20260506110603 | 15 | 255 | 9.7 | 24.1 | 0.00 | 0.74 | 0.33 | 80 | 1014.6 |
| 20260506105531 | 15 | 295 | 8.0 | 22.5 | 0.00 | 0.74 | 0.33 | 80 | 1014.6 |
| 20260506105036 | 15 | 317 | 6.4 | 19.3 | 0.00 | 0.74 | 0.33 | 80 | 1014.6 |
| 20260506103035 | 15 | 313 | 12.9 | 22.5 | 0.03 | 0.74 | 0.33 | 80 | 1014.6 |
| 20260506102034 | 15 | 250 | 6.4 | 20.9 | 0.03 | 0.74 | 0.33 | 80 | 1014.6 |
| 20260506101539 | 15 | 250 | 6.4 | 19.3 | 0.03 | 0.74 | 0.33 | 80 | 1014.6 |
| 20260506101025 | 15 | 253 | 8.0 | 19.3 | 0.03 | 0.74 | 0.33 | 80 | 1014.6 |
| 20260506100544 | 15 | 236 | 8.0 | 19.3 | 0.03 | 0.74 | 0.33 | 80 | 1014.6 |
| 20260506095540 | 14 | 228 | 12.9 | 17.7 | 0.05 | 0.74 | 0.33 | 80 | 1014.5 |
| 20260506095026 | 13 | 300 | 8.0 | 17.7 | 0.05 | 0.74 | 0.33 | 80 | 1014.5 |
| 20260506094035 | 13 | 258 | 6.4 | 27.4 | 0.08 | 0.74 | 0.33 | 80 | 1014.5 |
| 20260506093032 | 13 | 248 | 6.4 | 17.7 | 0.05 | 0.71 | 0.30 | 80 | 1014.5 |
| 20260506092523 | 13 | 249 | 8.0 | 22.5 | 0.05 | 0.71 | 0.30 | 80 | 1014.5 |
| 20260506092029 | 13 | 259 | 12.9 | 22.5 | 0.05 | 0.71 | 0.30 | 80 | 1014.5 |
| 20260506091538 | 13 | 271 | 9.7 | 25.7 | 0.05 | 0.71 | 0.30 | 80 | 1014.5 |
| 20260506091024 | 13 | 276 | 4.8 | 29.0 | 0.05 | 0.71 | 0.30 | 80 | 1014.4 |
| 20260506090546 | 13 | 226 | 12.9 | 29.0 | 0.05 | 0.71 | 0.30 | 80 | 1014.4 |
| 20260506090030 | 13 | 297 | 6.4 | 25.7 | 0.05 | 0.71 | 0.28 | 80 | 1014.4 |
| 20260506085537 | 13 | 271 | 12.9 | 20.9 | 0.05 | 0.71 | 0.28 | 80 | 1014.4 |
| 20260506084027 | 13 | 289 | 8.0 | 20.9 | 0.00 | 0.66 | 0.23 | 80 | 1014.3 |
| 20260506083535 | 13 | 266 | 11.3 | 19.3 | 0.00 | 0.66 | 0.23 | 80 | 1014.3 |
| 20260506083026 | 13 | 262 | 8.0 | 20.9 | 0.00 | 0.66 | 0.23 | 80 | 1014.3 |
| 20260506082020 | 13 | 266 | 8.0 | 29.0 | 0.00 | 0.66 | 0.23 | 80 | 1014.2 |
| 20260506081530 | 13 | 267 | 9.7 | 20.9 | 0.00 | 0.66 | 0.23 | 80 | 1014.2 |
| 20260506081036 | 13 | 263 | 8.0 | 20.9 | 0.00 | 0.66 | 0.23 | 80 | 1014.1 |
| 20260506080557 | 13 | 259 | 8.0 | 22.5 | 0.00 | 0.66 | 0.23 | 80 | 1014.1 |
| 20260506073523 | 13 | 238 | 12.9 | 24.1 | 0.00 | 0.66 | 0.23 | 80 | 1013.9 |
| 20260506073029 | 13 | 256 | 8.0 | 29.0 | 0.00 | 0.66 | 0.23 | 80 | 1013.9 |
| 20260506072025 | 13 | 290 | 12.9 | 29.0 | 0.00 | 0.66 | 0.23 | 80 | 1013.8 |
| 20260506071535 | 13 | 338 | 8.0 | 20.9 | 0.00 | 0.66 | 0.23 | 80 | 1013.8 |
| 20260506071022 | 13 | 248 | 8.0 | 19.3 | 0.00 | 0.66 | 0.23 | 80 | 1013.8 |
| 20260506070544 | 13 | 252 | 9.7 | 17.7 | 0.00 | 0.66 | 0.23 | 80 | 1013.8 |
| 20260506062028 | 12 | 182 | 8.0 | 16.1 | 0.00 | 0.66 | 0.23 | 80 | 1013.5 |
| 20260506061536 | 12 | 247 | 8.0 | 16.1 | 0.00 | 0.66 | 0.23 | 80 | 1013.5 |
| 20260506060601 | 11 | 269 | 1.6 | 8.0 | 0.00 | 0.66 | 0.23 | 80 | 1013.5 |
| 20260506051025 | 11 | 225 | 1.6 | 11.3 | 0.00 | 0.66 | 0.23 | 80 | 1013.1 |
| 20260506050546 | 11 | 219 | 3.2 | 11.3 | 0.00 | 0.66 | 0.23 | 80 | 1013.1 |
| 20260506045024 | 11 | 235 | 1.6 | 9.7 | 0.00 | 0.66 | 0.23 | 80 | 1013.1 |
| 20260506044535 | 11 | 233 | 4.8 | 11.3 | 0.00 | 0.66 | 0.23 | 80 | 1013.1 |
| 20260506044038 | 11 | 211 | 6.4 | 14.5 | 0.00 | 0.66 | 0.23 | 80 | 1013.1 |
| 20260506043526 | 11 | 232 | 3.2 | 14.5 | 0.00 | 0.66 | 0.23 | 80 | 1013.1 |
| 20260506043033 | 11 | 229 | 8.0 | 14.5 | 0.00 | 0.66 | 0.23 | 80 | 1013.1 |
| 20260506042522 | 11 | 229 | 4.8 | 11.3 | 0.00 | 0.66 | 0.23 | 80 | 1013.1 |
| 20260506042026 | 11 | 204 | 4.8 | 16.1 | 0.00 | 0.66 | 0.23 | 80 | 1013.1 |
| 20260506041537 | 11 | 221 | 6.4 | 16.1 | 0.00 | 0.66 | 0.23 | 80 | 1013.1 |
| 20260506041028 | 11 | 240 | 3.2 | 8.0 | 0.00 | 0.66 | 0.23 | 80 | 1013.3 |
| 20260506040552 | 11 | 224 | 3.2 | 11.3 | 0.03 | 0.66 | 0.23 | 80 | 1013.3 |
| 20260506040034 | 11 | 194 | 4.8 | 11.3 | 0.03 | 0.66 | 0.23 | 80 | 1013.3 |
| 20260506035522 | 11 | 174 | 3.2 | 11.3 | 0.05 | 0.66 | 0.23 | 80 | 1013.4 |
| 20260506035027 | 11 | 238 | 6.4 | 11.3 | 0.05 | 0.66 | 0.23 | 80 | 1013.4 |
| 20260506034534 | 11 | 248 | 6.4 | 11.3 | 0.05 | 0.66 | 0.23 | 80 | 1013.4 |
| 20260506034038 | 11 | 226 | 6.4 | 9.7 | 0.05 | 0.66 | 0.23 | 80 | 1013.5 |
| 20260506033527 | 11 | 216 | 4.8 | 9.7 | 0.05 | 0.66 | 0.23 | 80 | 1013.5 |
| 20260506033031 | 11 | 250 | 4.8 | 9.7 | 0.05 | 0.66 | 0.23 | 80 | 1013.5 |
| 20260506032520 | 11 | 222 | 3.2 | 9.7 | 0.05 | 0.66 | 0.23 | 80 | 1013.5 |
| 20260506032030 | 11 | 219 | 3.2 | 9.7 | 0.05 | 0.66 | 0.23 | 80 | 1013.5 |
| 20260506031539 | 11 | 233 | 1.6 | 14.5 | 0.05 | 0.66 | 0.23 | 80 | 1013.5 |
| 20260506030543 | 11 | 231 | 4.8 | 8.0 | 0.05 | 0.64 | 0.23 | 80 | 1013.6 |
| 20260506030030 | 11 | 222 | 3.2 | 14.5 | 0.05 | 0.64 | 0.23 | 80 | 1013.6 |
| 20260506025539 | 11 | 249 | 4.8 | 14.5 | 0.03 | 0.61 | 0.20 | 80 | 1013.4 |
| 20260506025026 | 11 | 185 | 4.8 | 11.3 | 0.03 | 0.61 | 0.18 | 80 | 1013.4 |
| 20260506024532 | 11 | 238 | 4.8 | 9.7 | 0.03 | 0.61 | 0.18 | 80 | 1013.4 |
| 20260506024036 | 11 | 222 | 4.8 | 9.7 | 0.05 | 0.61 | 0.18 | 80 | 1013.4 |
| 20260506023522 | 11 | 208 | 4.8 | 14.5 | 0.05 | 0.61 | 0.18 | 80 | 1013.4 |
| 20260506023028 | 11 | 186 | 6.4 | 14.5 | 0.05 | 0.61 | 0.18 | 80 | 1013.4 |
| 20260506022024 | 11 | 192 | 4.8 | 14.5 | 0.05 | 0.61 | 0.18 | 80 | 1013.5 |
| 20260506021537 | 11 | 192 | 6.4 | 14.5 | 0.05 | 0.61 | 0.18 | 80 | 1013.5 |
| 20260506021021 | 11 | 210 | 4.8 | 16.1 | 0.05 | 0.61 | 0.18 | 80 | 1013.5 |
| 20260506020029 | 11 | 274 | 8.0 | 17.7 | 0.05 | 0.61 | 0.18 | 80 | 1013.5 |
| 20260506015026 | 11 | 217 | 3.2 | 11.3 | 0.05 | 0.61 | 0.15 | 80 | 1013.6 |
| 20260506014534 | 11 | 217 | 3.2 | 11.3 | 0.05 | 0.61 | 0.15 | 80 | 1013.6 |
| 20260506013528 | 11 | 208 | 4.8 | 16.1 | 0.03 | 0.58 | 0.15 | 80 | 1013.7 |
| 20260506013031 | 11 | 194 | 4.8 | 11.3 | 0.00 | 0.56 | 0.13 | 80 | 1013.7 |
| 20260506012520 | 11 | 227 | 6.4 | 14.5 | 0.00 | 0.56 | 0.13 | 80 | 1013.7 |
| 20260506012025 | 11 | 203 | 4.8 | 14.5 | 0.00 | 0.56 | 0.13 | 80 | 1013.7 |
| 20260506011537 | 11 | 187 | 3.2 | 8.0 | 0.03 | 0.56 | 0.13 | 80 | 1013.7 |
| 20260506011039 | 11 | 217 | 1.6 | 8.0 | 0.05 | 0.56 | 0.13 | 80 | 1013.9 |
| 20260506010601 | 11 | 195 | 3.2 | 9.7 | 0.08 | 0.56 | 0.13 | 80 | 1013.9 |
| 20260506010024 | 11 | 210 | 1.6 | 8.0 | 0.13 | 0.56 | 0.13 | 80 | 1013.9 |
| 20260506005532 | 11 | 161 | 4.8 | 9.7 | 0.13 | 0.56 | 0.13 | 80 | 1014.1 |
| 20260506005036 | 11 | 226 | 4.8 | 9.7 | 0.13 | 0.61 | 0.13 | 80 | 1014.1 |
| 20260506004525 | 11 | 233 | 1.6 | 9.7 | 0.13 | 0.61 | 0.13 | 80 | 1014.1 |
| 20260506003540 | 11 | 248 | 6.4 | 17.7 | 0.18 | 0.61 | 0.13 | 80 | 1014.2 |
| 20260506003025 | 11 | 255 | 4.8 | 17.7 | 0.18 | 0.61 | 0.13 | 80 | 1014.2 |
| 20260506002533 | 12 | 224 | 6.4 | 20.9 | 0.18 | 0.61 | 0.13 | 80 | 1014.2 |
| 20260506002021 | 12 | 272 | 6.4 | 27.4 | 0.23 | 0.61 | 0.13 | 80 | 1014.2 |
| 20260506001530 | 12 | 188 | 12.9 | 32.2 | 0.23 | 0.58 | 0.10 | 80 | 1014.2 |
| 20260506001036 | 12 | 308 | 11.3 | 32.2 | 0.20 | 0.56 | 0.08 | 80 | 1014.2 |
| 20260506000557 | 12 | 217 | 8.0 | 22.5 | 0.15 | 0.51 | 0.05 | 80 | 1014.2 |
| 20260506000038 | 12 | 277 | 9.7 | 19.3 | 0.15 | 0.51 | 0.03 | 80 | 1014.2 |
| 20260505235526 | 11 | 276 | 9.7 | 27.4 | 0.13 | 0.48 | 0.48 | 80 | 1014.5 |
| 20260505235031 | 11 | 288 | 8.0 | 27.4 | 0.13 | 0.61 | 0.48 | 80 | 1014.5 |
| 20260505234537 | 11 | 295 | 8.0 | 17.7 | 0.13 | 0.61 | 0.48 | 80 | 1014.5 |
| 20260505234023 | 11 | 279 | 6.4 | 14.5 | 0.08 | 0.56 | 0.43 | 80 | 1014.2 |
| 20260505233532 | 11 | 267 | 6.4 | 14.5 | 0.05 | 0.53 | 0.43 | 80 | 1014.2 |
| 20260505233022 | 11 | 213 | 6.4 | 14.5 | 0.05 | 0.53 | 0.43 | 80 | 1014.2 |
| 20260505232530 | 11 | 221 | 6.4 | 11.3 | 0.05 | 0.53 | 0.43 | 80 | 1014.2 |
| 20260505232034 | 11 | 193 | 3.2 | 14.5 | 0.03 | 0.51 | 0.38 | 80 | 1014.2 |
| 20260505231521 | 11 | 133 | 6.4 | 14.5 | 0.00 | 0.48 | 0.36 | 80 | 1014.2 |
| 20260505231027 | 11 | 194 | 3.2 | 14.5 | 0.00 | 0.48 | 0.36 | 80 | 1014.2 |
| 20260505230550 | 11 | 212 | 4.8 | 14.5 | 0.00 | 0.48 | 0.36 | 80 | 1014.2 |
| 20260505225526 | 12 | 198 | 4.8 | 14.5 | 0.00 | 0.48 | 0.36 | 80 | 1014.4 |
| 20260505225032 | 12 | 236 | 6.4 | 17.7 | 0.03 | 0.56 | 0.36 | 80 | 1014.4 |
| 20260505224539 | 12 | 238 | 6.4 | 17.7 | 0.03 | 0.56 | 0.36 | 80 | 1014.4 |
| 20260505224028 | 12 | 200 | 4.8 | 17.7 | 0.03 | 0.56 | 0.36 | 80 | 1014.5 |
| 20260505223040 | 12 | 217 | 8.0 | 16.1 | 0.05 | 0.56 | 0.36 | 80 | 1014.5 |
| 20260505222528 | 12 | 240 | 3.2 | 11.3 | 0.05 | 0.56 | 0.36 | 80 | 1014.4 |
| 20260505222034 | 12 | 260 | 3.2 | 11.3 | 0.05 | 0.56 | 0.36 | 80 | 1014.4 |
| 20260505221523 | 12 | 191 | 4.8 | 11.3 | 0.05 | 0.56 | 0.36 | 80 | 1014.4 |
| 20260505220554 | 12 | 221 | 1.6 | 9.7 | 0.05 | 0.56 | 0.36 | 80 | 1014.5 |
| 20260505220035 | 12 | 244 | 3.2 | 9.7 | 0.05 | 0.56 | 0.36 | 80 | 1014.5 |
| 20260505215523 | 12 | 221 | 1.6 | 9.7 | 0.05 | 0.56 | 0.36 | 80 | 1014.6 |
| 20260505215030 | 12 | 226 | 3.2 | 9.7 | 0.05 | 0.64 | 0.36 | 80 | 1014.6 |
| 20260505214523 | 12 | 314 | 1.6 | 14.5 | 0.05 | 0.61 | 0.33 | 80 | 1014.6 |
| 20260505214027 | 12 | 254 | 1.6 | 14.5 | 0.05 | 0.61 | 0.33 | 80 | 1014.6 |
| 20260505213536 | 12 | 274 | 3.2 | 16.1 | 0.03 | 0.61 | 0.33 | 80 | 1014.6 |
| 20260505213037 | 12 | 250 | 3.2 | 16.1 | 0.03 | 0.61 | 0.33 | 80 | 1014.6 |
| 20260505212524 | 12 | 231 | 6.4 | 12.9 | 0.03 | 0.61 | 0.33 | 80 | 1014.6 |
| 20260505212030 | 12 | 217 | 3.2 | 11.3 | 0.03 | 0.61 | 0.33 | 80 | 1014.6 |
| 20260505211539 | 12 | 222 | 6.4 | 11.3 | 0.03 | 0.61 | 0.33 | 80 | 1014.6 |
| 20260505211024 | 12 | 212 | 3.2 | 11.3 | 0.03 | 0.61 | 0.33 | 80 | 1014.7 |
| 20260505210546 | 12 | 226 | 3.2 | 11.3 | 0.00 | 0.58 | 0.30 | 80 | 1014.7 |
| 20260505210029 | 12 | 198 | 1.6 | 8.0 | 0.00 | 0.58 | 0.30 | 80 | 1014.7 |
| 20260505205523 | 12 | 217 | 1.6 | 8.0 | 0.00 | 0.58 | 0.30 | 80 | 1014.6 |
| 20260505205030 | 12 | 224 | 1.6 | 8.0 | 0.00 | 0.64 | 0.30 | 80 | 1014.6 |
| 20260505204539 | 12 | 219 | 3.2 | 8.0 | 0.00 | 0.64 | 0.30 | 80 | 1014.6 |
| 20260505204027 | 12 | 212 | 3.2 | 9.7 | 0.00 | 0.64 | 0.30 | 80 | 1014.6 |
| 20260505203534 | 12 | 182 | 4.8 | 9.7 | 0.00 | 0.64 | 0.30 | 80 | 1014.6 |
| 20260505203037 | 12 | 203 | 1.6 | 9.7 | 0.00 | 0.64 | 0.30 | 80 | 1014.6 |
| 20260505202526 | 12 | 198 | 1.6 | 8.0 | 0.00 | 0.64 | 0.30 | 80 | 1014.4 |
| 20260505201523 | 12 | 195 | 3.2 | 11.3 | 0.00 | 0.64 | 0.30 | 80 | 1014.4 |
| 20260505201037 | 12 | 207 | 4.8 | 11.3 | 0.00 | 0.64 | 0.30 | 80 | 1014.2 |
| 20260505200558 | 12 | 262 | 1.6 | 4.8 | 0.00 | 0.64 | 0.30 | 80 | 1014.2 |
| 20260505200026 | 12 | 262 | 0.0 | 4.8 | 0.00 | 0.64 | 0.30 | 80 | 1014.2 |